This is the latest recevied weather packets stored in our database for station/object KD8DNS. If no packets are shown the sender has not sent any weather packets the latest 10 day(s).
| Time | Temp. | Humidity | Pressure | Rain* | Wind** | Luminosity | Snow |
|---|---|---|---|---|---|---|---|
| 1788013980 | 26.67° C | 65% | 1025.8 hPa | 0 mm | - | 462 W/m² | - |
| 1788013674 | 26.67° C | 67% | 1025.9 hPa | 0 mm | - | 385 W/m² | - |
| 1788013369 | 26.11° C | 69% | 1025.9 hPa | 0 mm | - | 390 W/m² | - |
| 1788013069 | 25.56° C | 70% | 1025.8 hPa | 0 mm | - | 358 W/m² | - |
| 1788012768 | 25.56° C | 70% | 1025.6 hPa | 0 mm | - | 311 W/m² | - |
| 1788012463 | 25° C | 72% | 1025.7 hPa | 0 mm | - | 325 W/m² | - |
| 1788012163 | 24.44° C | 74% | 1025.7 hPa | 0 mm | - | 394 W/m² | - |
| 1788011862 | 24.44° C | 72% | 1025.9 hPa | 0 mm | - | 435 W/m² | - |
| 1788011561 | 24.44° C | 73% | 1025.6 hPa | 0 mm | - | 405 W/m² | - |
| 1788011256 | 24.44° C | 72% | 1026.1 hPa | 0 mm | - | 352 W/m² | - |
| 1788010955 | 24.44° C | 73% | 1025.9 hPa | 0 mm | - | 308 W/m² | - |
| 1788010650 | 23.89° C | 73% | 1025.7 hPa | 0 mm | - | 312 W/m² | - |
| 1788010349 | 23.89° C | 72% | 1025.9 hPa | 0 mm | - | 284 W/m² | - |
| 1788010049 | 23.33° C | 74% | 1025.8 hPa | 0 mm | - | 269 W/m² | - |
| 1788009744 | 22.78° C | 78% | 1025.8 hPa | 0 mm | - | 258 W/m² | - |
| 1788009442 | 22.22° C | 78% | 1025.6 hPa | 0 mm | - | 255 W/m² | - |
| 1788009144 | 21.67° C | 80% | 1025.7 hPa | 0 mm | - | 255 W/m² | - |
| 1788008833 | 21.67° C | 80% | 1025.6 hPa | 0 mm | - | 228 W/m² | - |
| 1788008527 | 21.11° C | 81% | 1025.4 hPa | 0 mm | - | 209 W/m² | - |
| 1788008224 | 20.56° C | 82% | 1025.6 hPa | 0 mm | - | 174 W/m² | - |
| 1788007923 | 20.56° C | 84% | 1025.5 hPa | 0 mm | - | 177 W/m² | - |
| 1788007621 | 20° C | 85% | 1025.5 hPa | 0 mm | - | 160 W/m² | - |
| 1788007316 | 19.44° C | 86% | 1025.5 hPa | 0 mm | - | 121 W/m² | - |
| 1788007011 | 18.89° C | 88% | 1025.3 hPa | 0 mm | - | 135 W/m² | - |
| 1788006705 | 18.33° C | 89% | 1025.5 hPa | 0 mm | - | 92 W/m² | - |
* Rain latest hour (hover to see other rain measurements)
** Current wind speed in m/s (hover to see current wind gust speed)